Cloud_Cover
0 0 10 99 100 100 100 86 5 4 1 0 0 0 0 0 2 1 0 0 0 0 0 2 0 0 0 0 0 0 0 0 0 0 0 0 0 0 0 0 0 0 0 0 0 0 0 0 0
0 0 0 0 0 3 37 5 3 1 0 0 0 0 0 0 0 0 0 0 0 0 0 0 3 0 0 0 0 0 7 7 0 0 0 0 0 0 0 0 0 0 0 0 0 0 0 0 0
0 0 0 0 0 0 0 0 0 0 0 0 0 0 0 0 0 0 0 0 0 0 0 0 1 0 0 0 0 0 0 9 1 0 0 0 0 0 0 0 0 0 2 0 0 0 0 0 0
0 0 0 0 0 0 0 0 0 0 0 0 0 0 0 0 0 0 0 0 0 0 0 57 5 0 0 0 0 0 0 0 0 0 1 0 0 0 0 0 0 2 98 5 3 0 0 0 0
0 0 0 0 0 0 0 0 0 0 0 0 0 0 0 0 0 0 0 0 0 0 0 3 6 0 0 1 0 0 4 5 5 5 5 4 0 0 0 0 0 3 14 6 4 0 0 0 0
0 0 0 0 0 0 0 0 0 0 0 0 0 0 0 0 0 0 0 0 0 0 0 3 24 0 0 0 3 1 4 21 5 5 5 4 0 4 0 5 4 0 2 6 91 6 0 0 0
0 0 0 0 0 0 0 0 0 0 0 0 0 0 0 0 0 1 0 0 0 0 19 19 0 1 41 0 4 5 5 28 56 11 5 5 5 5 5 2 4 3 0 3 54 93 0 0 0
5 0 0 0 0 0 0 0 0 0 0 0 0 0 0 0 2 5 3 0 20 14 17 37 13 0 0 0 8 0 5 5 5 89 100 77 12 83 42 5 6 19 3 7 99 82 5 3 0
5 5 1 3 0 0 0 4 5 5 1 1 0 0 0 5 66 88 47 37 8 25 28 57 24 13 3 4 5 53 26 3 59 53 60 99 99 100 87 5 13 5 100 69 38 100 5 5 9
23 14 3 4 2 1 2 5 25 13 2 5 0 0 0 0 7 6 4 3 5 30 29 16 16 2 24 9 23 7 4 0 4 6 91 91 99 100 100 9 25 51 72 100 94 99 24 67 4
100 93 16 5 2 5 4 0 5 5 12 49 31 6 0 0 4 5 2 0 0 10 31 17 36 20 6 0 10 19 0 39 10 24 94 100 100 100 100 61 82 72 15 5 21 96 100 96 52
100 100 100 100 94 52 9 7 5 5 30 8 39 11 5 2 6 7 65 8 6 20 44 63 13 29 11 0 0 1 9 71 25 9 33 37 71 99 100 87 82 100 62 74 27 57 100 100 96
60 79 100 50 24 75 29 26 5 7 67 86 49 71 7 5 5 6 89 100 100 100 100 79 6 20 22 11 0 0 2 45 100 100 98 90 31 53 68 93 98 100 96 94 96 99 100 100 100
76 49 98 100 96 98 69 36 32 9 47 76 77 86 85 87 69 92 100 100 100 100 100 100 99 64 28 6 29 2 0 2 51 97 99 91 14 36 18 84 95 100 72 100 99 70 100 100 100
79 79 36 26 7 11 24 77 5 38 18 98 100 100 100 100 100 100 100 100 100 100 77 96 100 100 100 100 100 98 60 0 0 30 100 100 46 37 99 56 100 100 100 99 93 98 90 100 100
71 37 5 4 4 8 59 86 1 0 4 5 24 98 100 22 99 100 100 100 93 96 46 48 100 100 100 95 62 100 17 5 0 27 21 100 99 37 100 100 100 100 100 100 100 93 100 100 100
4 11 1 3 0 1 0 4 0 0 0 0 2 5 84 100 100 100 100 20 28 12 91 88 99 52 100 100 12 48 5 65 4 4 0 35 100 93 71 100 100 91 98 100 100 100 100 100 100
0 0 0 0 0 0 0 0 0 0 0 0 0 0 20 100 100 100 100 100 100 57 80 100 100 78 95 28 31 3 5 12 3 9 0 0 90 100 100 100 100 100 100 100 100 97 100 100 100
0 0 0 0 0 0 0 0 0 0 0 0 0 0 0 0 17 100 100 100 100 100 100 100 87 47 100 19 5 0 0 5 0 6 0 0 84 100 100 60 88 100 100 100 100 98 100 100 100
0 0 0 0 0 0 0 0 0 0 47 3 0 1 4 3 0 0 2 88 100 100 100 20 11 24 20 34 5 0 0 3 2 0 0 0 2 76 100 85 100 100 100 100 100 100 100 100 100
0 0 0 0 0 0 0 0 0 0 63 19 35 54 89 100 97 60 5 1 4 19 58 5 13 26 26 72 89 20 0 2 7 2 3 5 44 44 92 91 61 54 22 91 100 100 100 100 98
0 0 0 0 0 0 2 1 3 5 52 61 97 100 100 100 100 100 100 100 98 96 90 58 28 64 98 94 100 86 99 95 26 8 5 26 21 5 64 92 48 42 100 31 100 100 100 100 100
0 0 0 0 0 0 1 6 100 14 29 53 100 100 100 100 100 100 100 100 100 100 100 100 100 100 100 100 92 100 100 100 100 98 85 100 100 75 97 100 42 55 100 98 100 100 100 100 100
0 0 1 4 5 2 0 20 29 82 100 100 100 100 100 99 100 100 100 100 100 100 100 100 100 100 100 100 100 100 100 100 100 99 100 100 100 100 100 100 100 100 100 100 100 100 100 100 100
1 5 4 4 78 4 30 85 96 94 100 100 100 100 100 100 100 100 100 100 100 100 100 100 100 100 100 100 100 100 100 100 100 90 100 100 100 100 100 100 100 100 100 100 100 100 100 98 100
5 27 6 5 5 52 23 32 100 100 99 100 100 100 100 100 100 100 100 100 100 100 100 100 100 100 100 100 100 100 100 100 100 100 100 100 100 100 100 100 100 100 100 100 100 100 100 100 100
96 86 86 27 31 95 43 99 100 91 100 100 100 100 100 100 100 100 100 100 100 100 100 100 100 100 100 100 100 100 87 100 100 100 100 100 98 100 100 100 100 100 100 100 100 100 100 100 100
65 92 100 96 92 77 76 92 98 72 100 100 100 100 100 100 100 100 100 100 100 100 100 100 100 100 100 100 100 100 100 100 100 94 100 92 100 100 100 100 100 100 100 100 100 100 100 100 100
100 96 90 94 95 99 96 100 100 100 100 100 100 100 100 100 100 100 100 100 100 100 100 100 100 100 100 100 100 100 100 100 100 100 100 100 100 100 100 100 100 100 100 100 100 100 100 100 100
91 74 100 100 100 100 35 100 100 90 100 100 100 100 100 100 100 100 100 100 100 100 100 100 100 100 100 100 100 100 100 100 100 100 100 100 100 100 100 100 100 100 100 100 100 100 100 100 100